Miscellaneous Local Product
Issued by NWS Hastings, NE

Home | Current Version | Previous Version | Text Only | Print | Product List | Glossary On
Versions: 1 2 3 4 5 6 7 8 9 10 11 12 13 14 15 16 17 18 19 20 21 22 23 24 25 26 27 28 29 30 31 32 33 34 35 36 37 38 39 40 41 42 43 44 45 46 47 48 49 50
059
AXUS43 KGID 071002
MISGRI

GID CWA HOURLY WEATHER ROUNDUP
NATIONAL WEATHER SERVICE HASTINGS NE
400 AM CST WED DEC 07 2016

NOTE: "FAIR" INDICATES FEW OR NO CLOUDS BELOW 12,000 FEET WITH NO
SIGNIFICANT WEATHER AND/OR OBSTRUCTIONS TO VISIBILITY.

...SOUTH CENTRAL NEBRASKA...

CITY           SKY/WX    TMP DP  RH WIND       PRES   REMARKS
GRAND ISLAND   CLOUDY    15   5  64 N13       30.20S WCI   1
HASTINGS       CLOUDY    18   6  59 N13       30.19R WCI   5
KEARNEY        CLOUDY    16   1  53 N13       30.18S WCI   2
ORD            CLOUDY    12   1  61 NW17      30.19S WCI  -5
YORK           CLOUDY    18   9  68 N9        30.19S WCI   6
AURORA         CLOUDY    16   6  64 N12       30.19S WCI   3
LEXINGTON      CLOUDY    17   4  57 N14       30.18R WCI   3
HOLDREGE       CLOUDY    17   5  58 N10G18    30.16S WCI   5
HEBRON         CLOUDY    23  12  62 N14       30.20R WCI  11

...NEBRASKA PANHANDLE...

CITY           SKY/WX    TMP DP  RH WIND       PRES   REMARKS
CHADRON        CLOUDY     8  -1  66 NW12      30.18R WCI  -7
ALLIANCE       CLOUDY     9   1  70 N8        30.09S WCI  -3
SCOTTSBLUFF    LGT SNOW  11   4  73 N9        30.10R WCI  -2
SIDNEY         LGT SNOW  12   8  84 NE13      30.04R FOG     WCI  -3

...WESTERN AND NORTH CENTRAL NEBRASKA...

CITY           SKY/WX    TMP DP  RH WIND       PRES   REMARKS
VALENTINE      CLOUDY     8  -3  61 NW20      30.18R WCI -11
AINSWORTH      CLOUDY     9   2  74 NW9       30.17S WCI  -5
ONEILL         CLOUDY    10   3  74 NW12G17   30.19S WCI  -5
BROKEN BOW     CLOUDY    13   2  61 N18       30.17R WCI  -4
IMPERIAL       LGT SNOW  15  11  83 NE14      30.12R FOG     WCI   0
NORTH PLATTE   CLOUDY    13   1  59 N9        30.17R WCI   1
MCCOOK         LGT SNOW  17  13  84 N17       30.14R VSB 3/4 WCI   1

...EASTERN NEBRASKA...

CITY           SKY/WX    TMP DP  RH WIND       PRES   REMARKS
NORFOLK        PTCLDY    12   3  67 NW15      30.17F WCI  -4
SO SIOUX CITY  PTCLDY    16   7  67 NW16G22   30.20R WCI   1
TEKAMAH        CLOUDY    16   7  67 NW17      30.21R WCI   0
COLUMBUS       PTCLDY    16   3  57 NW14G20   30.20F WCI   1
ALBION         CLOUDY    13   3  65 NW18G26   30.18F WCI  -4
OMAHA EPPLEY   MOCLDY    18   9  68 N9        30.21R WCI   7
OFFUTT AFB     CLOUDY    19   8  62 NW8       30.21R WCI   9
MILLARD        CLOUDY    20   9  61 NW7       30.22R WCI  11
LINCOLN        CLOUDY    21   9  59 NW14      30.23R WCI   8
NEBRASKA CITY  CLOUDY    22   8  53 NW12      30.19R WCI  11
BEATRICE       CLOUDY    24  15  68 N8        30.19R WCI  15
FALLS CITY     CLOUDY    24  14  65 N3        30.19F

...NORTHERN KANSAS...

CITY           SKY/WX    TMP DP  RH WIND       PRES   REMARKS
GOODLAND       CLOUDY    23  14  68 NE15      30.02R WCI  10
HILL CITY      CLOUDY    23  10  57 E12       30.12R WCI  12
NORTON         CLOUDY    19   3  49 N14       30.12  WCI   6
PHILLIPSBURG   CLOUDY    25   9  50 N13G20    30.15R WCI  13
SMITH CENTER   CLOUDY    23   9  54 N16G22    30.15S WCI  10
BELOIT         PTCLDY    23  12  63 NE10      30.16R WCI  12
HAYS           CLOUDY    26  16  65 NE16      30.09S WCI  14
RUSSELL        CLOUDY    25  15  66 NE12      30.09F WCI  14
CONCORDIA      MOCLDY    24  12  60 N9        30.16S WCI  14
SALINA         PTCLDY    29  15  56 E6        30.16S WCI  23
TOPEKA         CLOUDY    30  14  51 NE6       30.19F WCI  24



USA.gov is the U.S. government's official web portal to all federal, state and local government web resources and services.